2019-052B (44487 NORAD) Tracking and Keplerian Element Data

This shows tracking and keplerian element data for the satellite.

Feedback or suggestion? Click here.




ElementValue
Catalog44487
Name2019-052B
Epoch Orbit447
Epoch Day258.84867439
Epoch Year2019
RAAN331.9017
Inclination97.6034
Eccentricity0.0023582
Argument of Perigee153.6908
Mean Anonmoly342.1789
Mean Motion15.07455881
Decay Rate1.04E-06
L11 44487U 19052B 19258.84867439 .00000104 00000-0 11029-4 0 9990
L22 44487 97.6034 331.9017 0023582 153.6908 342.1789 15.07455881 4477

Live tracking and technical data element details for 2019-052B (NORAD 44487). 2019-052B can be tracked NOW for your location showing map with azimuth and elevation plus other details from your city location.

Track the satellite on the map from your city or location and see movement details for azimuth, elevation, latitude, longitude, range, height, and movement on the map or in text.







IsCatalogInMostPopularTable: catalog: 44487, numindb: 18
Update: records affected: 1



GetName: 44487 2019-052B

Hit Count: updated at: Thu, 12 Dec 2019 00:24:10 GMT